Regional Weather Roundup
Issued by NWS Upton, NY

Current Version | Previous Version | Graphics & Text | Print | Product List | Glossary Off
Versions: 1 2 3 4 5 6 7 8 9 10 11 12 13 14 15 16 17 18 19 20 21 22 23 24 25 26 27 28 29 30 31 32 33 34 35 36 37 38 39 40 41 42 43 44 45 46 47 48 49 50

000
ASUS41 KOKX 020908
RWROKX

REGIONAL WEATHER ROUNDUP
NATIONAL WEATHER SERVICE NEW YORK NY
500 AM EDT TUE JUN 02 2015

NOTE: "FAIR" INDICATES FEW OR NO CLOUDS BELOW 12,000 FEET WITH NO
SIGNIFICANT WEATHER AND/OR OBSTRUCTIONS TO VISIBILITY.

NYZ071-072-176-178-NJZ106-104-021000-
NEW YORK CITY METRO AREA


CITY           SKY/WX    TMP DP  RH WIND       PRES   REMARKS
CENTRAL PARK   CLOUDY    50  47  89 NE9       30.12F
LAGUARDIA APRT CLOUDY    50  47  89 N10       30.09F
KENNEDY INTL   CLOUDY    51  48  89 N12       30.09F
NEWARK/LIBERTY LGT RAIN  49  47  93 NE15G22   30.09F
BRNX BOT. GARD   N/A     48  46  93 SW1       30.11F
TETERBORO      CLOUDY    50  47  89 NE9       30.09F
$$

NYZ177-179-078>081-021000-
LONG ISLAND NEW YORK

CITY           SKY/WX    TMP DP  RH WIND       PRES   REMARKS
FARMINGDALE    LGT RAIN  50  48  93 NE9       30.08F
ISLIP          LGT RAIN  50  48  93 NE12      30.06F
SHIRLEY        LGT RAIN  50  48  93 VRB6      30.09F FOG
WESTHAMPTON    LGT RAIN  51  50  96 NE12      30.11S FOG
MONTAUK POINT    N/A     51  48  89 NE7       30.12S
$$

NYZ052-065-067-021000-
HUDSON VALLEY

CITY           SKY/WX    TMP DP  RH WIND       PRES   REMARKS
WHITE PLAINS   CLOUDY    48  46  93 N8        30.10F FOG
NEWBURGH       SHOWER    46  46 100 NE12      30.14F FOG
MONTGOMERY     LGT RAIN  49  47  93 NE6       30.13F
POUGHKEEPSIE   LGT RAIN  49  46  90 N5        30.14S
ALBANY         CLOUDY    49  47  93 CALM      30.17S
$$

NJZ001-105-106-008-010-013-015-019>022-104-021000-
NEW JERSEY

CITY           SKY/WX    TMP DP  RH WIND       PRES   REMARKS
NEWARK/LIBERTY LGT RAIN  49  47  93 NE15G22   30.09F
TETERBORO      CLOUDY    50  47  89 NE9       30.09F
CALDWELL       LGT RAIN  49  46  90 NE8       30.11F FOG
MORRISTOWN     LGT RAIN  52  48  87 N9        30.10F
SOMERVILLE     CLOUDY    50  47  89 NE7       30.07F
SUSSEX         LGT RAIN  48  45  89 NE9       30.13F
ANDOVER          N/A     48  47  96 NE8       30.11F
TRENTON        CLOUDY    50  48  93 NE15      30.06F
MILLVILLE      LGT RAIN  57  55  93 NE12      30.02R
ATLANTIC CITY  NOT AVBL
WRIGHTSTOWN    LGT RAIN  52  50  93 NE12      30.03F
TOMS RIVER     CLOUDY   N/A N/A N/A NE14      30.04F
BELMAR         CLOUDY    52  45  76 NE9       30.07S
$$

PAZ047>061-062-071-021000-
EASTERN PENNSYLVANIA

CITY           SKY/WX    TMP DP  RH WIND       PRES   REMARKS
PHILADELPHIA   CLOUDY    54  51  90 NE15      30.05S
ALLENTOWN      CLOUDY    51  48  89 NE9G17    30.09S
SCRANTON       LGT RAIN  52  48  86 E3        30.09F
$$

CTZ002-004>006-009-010-012-RIZ004-006-007-MAZ004-011-015-021000-
SOUTHERN NEW ENGLAND
 IN CT

CITY           SKY/WX    TMP DP  RH WIND       PRES   REMARKS
BRADLEY INTL   LGT RAIN  48  45  89 N9        30.15S
HARTFORD       RAIN      48  46  93 N10       30.15S
DANBURY        CLOUDY    47  43  86 NE6       30.14S
WTRBRY/OXFORD  CLOUDY    46  39  76 NE9       30.13S
BRIDGEPORT     LGT RAIN  50  47  89 NE9       30.12S
MERIDEN        LGT RAIN  49  45  86 N8        30.14S
NEW HAVEN      CLOUDY    49  47  93 NE6       30.12S
CHESTER        DRIZZLE   46  46 100 NE8       30.13S
GROTON         CLOUDY    49  46  90 N7        30.11S
WILLIMANTIC    CLOUDY    48  45  89 NE7       30.14R

 IN RI

CITY           SKY/WX    TMP DP  RH WIND       PRES   REMARKS
PROVIDENCE     CLOUDY    48  45  89 N13       30.14F
BLOCK ISLAND   CLOUDY    50  45  81 NE15      30.10F
WESTERLY       CLOUDY    48  46  93 N7        30.11S

 IN MA

CITY           SKY/WX    TMP DP  RH WIND       PRES   REMARKS
BOSTON         RAIN      46  45  96 NE13      30.17F FOG
WORCESTER      LGT RAIN  44  42  93 NE10G17   30.14F FOG
WESTFIELD      RAIN      47  44  90 N9        30.16S FOG
PROVINCETOWN   CLOUDY    50  45  81 NE13      30.13F
NANTUCKET      CLOUDY    53  51  93 N12       30.08F FOG
$$

ANZ330-335-338-340-345-350-353-355-021000-
COASTAL MARINE OBSERVATIONS


STATION/POSITION TIME  SKY/WX   TEMP    WIND        PRES    VSBY  WAVE
                                AIR SEA DIR/SP/G                  HT/PER
                 (UTC)          (F)     (DEG/KT/KT) (MB)    (MI)  (FT/S)
NY HARB ENTRANCE 0850            52 58   30/ 17/ 19 1017.7          5/ 6
4S FIRE IS       0803               54                N/A           4/ 6
20S FIRE ISLAND  0850            53 58   50/ 21/ 27 1016.8          6/ 6
GREAT SOUTH BAY  0800            51 66   40/ 14/ 16   N/A
23SW MTP         0850            53 57   50/ 19/ 21 1018.0          5/ 5
HUDSON CANYON    NOT AVBL
KINGS POINT      0800            50 56   40/  7/ 12 1019.4
CENTRAL LI SOUND 0815            51 55   40/ 16/ 17   N/A
EASTERN LI SOUND 0800            50      30/ 12/ 17   N/A
ROBBINS REEF     0800            50      50/ 14/ 17 1018.1
$$


>>>>>>>>>>>>>>>>>>>>>>>>>>>> KEY <<<<<<<<<<<<<<<<<<<<<<<<<<<
>                                                          <
>     SKY/WX - SKY CONDITION/PRESENT WEATHER               <
>     TMP    - TEMPERATURE IN FAHRENHEIT                   <
>     DP     - DEWPOINT IN FAHRENHEIT                      <
>     RH     - RELATIVE HUMIDITY IN PERCENT                <
>     WIND   - DIRECTION AND SPEED IN MPH                  <
>     PRES   - MEAN SEA LEVEL PRESSURE IN INCHES OF HG     <
>     WCI    - WIND CHILL INDEX                            <
>     VSB    - VISIBILITY IN MILES                         <
>     HX     - HEAT INDEX                                  <
>     TC     - TEMPERATURE IN CELSIUS                      <
>     VRB    - VARIABLE WIND DIRECTION                     <
>                                                          <
>>>>>>>>>>>>>>>>>>>>>>>>>>>> KEY <<<<<<<<<<<<<<<<<<<<<<<<<<<





USA.gov is the U.S. government's official web portal to all federal, state and local government web resources and services.